Home > Weather > Qyzylorda > Past weeks

Flag for Kazakhstan Weather for the Past 2 Weeks in Qyzylorda, Kazakhstan

Now
25 °F

Passing clouds.


Feels Like: 18 °F
Forecast: 15 / 29 °F
Wind: 6 mph from Northeast

Location: Kzyl-Orda

Current Time: Feb 12, 2016 at 2:07:00 AM

Latest Report: Feb 12, 2016 at 1:00 AM


Visibility: N/A

Pressure: 30.54 "Hg

Humidity: 63%

Dew point: 14 °F

Location of QyzylordaLocation

Historic Weather in Qyzylorda — Graph

°F

Qyzylorda Temperature Yesterday

Maximum temperature yesterday: 32 °F (at 2:30 PM)
Minimum temperature yesterday: 18 °F (at 7:30 AM)
Average temperature yesterday: 26 °F

High & Low Weather Summary for the Past Weeks

 TemperatureHumidityPressure
High59 °F (Feb 7, 4:30 PM)100% (Jan 28, 1:00 AM)30.72 "Hg (Jan 28, 1:00 AM)
Low7 °F (Jan 28, 9:30 AM)36% (Feb 7, 4:30 PM)29.77 "Hg (Feb 7, 3:30 PM)
Average30 °F83%30.32 "Hg
* Reported Jan 28 1:00 AM — Feb 12 1:00 AM, Qyzylorda, Weather by CustomWeather, © 2016

Note: Actual official high and low records may vary slightly from our data, if they occured in-between our weather recording intervals... More about our weather records

Advertising

Qyzylorda Weather History for the Previous 24 Hours

 ConditionsComfort  
Time TempWeatherWind HumidityBarometerVisibility
1:00 AM
Fri, Feb 12
25 °FPassing clouds.6 mph63%30.54 "HgN/A
12:00 AM25 °FClear.8 mph63%30.57 "Hg10 mi
11:00 PM
Thu, Feb 11
25 °FClear.6 mph69%30.57 "Hg10 mi
10:00 PM27 °FClear.8 mph64%30.60 "Hg10 mi
9:00 PM27 °FClear.6 mph64%30.60 "Hg10 mi
8:00 PM28 °FClear.10 mph55%30.63 "Hg10 mi
7:30 PM28 °FSunny.8 mph55%30.60 "Hg10 mi
7:00 PM30 °FSunny.13 mph51%30.63 "Hg10 mi
6:30 PM30 °FSunny.13 mph55%30.63 "Hg10 mi
6:00 PM30 °FSunny.13 mph51%30.63 "Hg10 mi
5:30 PM32 °FSunny.13 mph51%30.63 "Hg10 mi
5:00 PM32 °FSunny.13 mph51%30.63 "Hg10 mi
4:30 PM32 °FSunny.15 mph51%30.63 "Hg10 mi
4:00 PM32 °FSunny.13 mph51%30.63 "Hg10 mi
3:30 PM32 °FSunny.13 mph55%30.63 "Hg10 mi
3:00 PM32 °FPassing clouds.13 mph51%30.66 "HgN/A
2:30 PM32 °FSunny.13 mph51%30.66 "Hg10 mi
2:00 PM30 °FPassing clouds.15 mph55%30.66 "HgN/A
1:30 PM30 °FSunny.13 mph55%30.66 "Hg10 mi
1:00 PM28 °FSunny.13 mph59%30.69 "Hg10 mi
12:30 PM28 °FSunny.10 mph55%30.69 "Hg10 mi
12:00 PM27 °FSunny.10 mph59%30.69 "Hg10 mi
11:30 AM25 °FSunny.10 mph63%30.69 "Hg10 mi
11:00 AM23 °FPassing clouds.10 mph68%30.69 "HgN/A
10:30 AM23 °FSunny.10 mph68%30.69 "Hg10 mi
10:00 AM19 °FSunny.8 mph79%30.72 "Hg10 mi
9:30 AM19 °FPassing clouds.6 mph86%30.72 "HgN/A
9:00 AM18 °FClear.6 mph86%30.72 "Hg10 mi
8:30 AM18 °FClear.6 mph86%30.72 "Hg10 mi
8:00 AM18 °FClear.6 mph93%30.69 "Hg10 mi
7:30 AM18 °FPassing clouds.3 mph93%30.69 "HgN/A
7:00 AM19 °FClear.6 mph86%30.69 "Hg10 mi
6:00 AM19 °FClear.6 mph86%30.69 "Hg10 mi
5:00 AM19 °FClear.6 mph86%30.72 "Hg10 mi
4:00 AM21 °FClear.6 mph80%30.72 "Hg10 mi
3:00 AM21 °FClear.6 mph80%30.72 "Hg10 mi
2:00 AM23 °FClear.6 mph80%30.72 "Hg10 mi
Weather by CustomWeather, © 2016

See weather overviewHow to use our weather pages